Orbital Elements at Epoch 2459200.5 (2020-Dec-17.0) TDB
Reference: JPL 16 (heliocentric ecliptic J2000)
Element | Value | Uncertainty (1-sigma) | Units |
e | .08211109157642735 | 4.1459e-08 | |
a | 3.180221817168937 | 3.2066e-08 | au |
q | 2.919090332306026 | 1.278e-07 | au |
i | 1.668567934423201 | 4.5788e-06 | deg |
node | 21.65956321791485 | 0.00018029 | deg |
peri | 50.61537013729214 | 0.00018322 | deg |
M | 225.9089008352354 | 3.4575e-05 | deg |
tp | 2459972.081836990938 (2023-Jan-27.58183699) | 0.00020414 | TDB |
period | 2071.498131098382 5.67 | 3.1331e-05 8.578e-08 | d yr |
n | .1737872675796793 | 2.6285e-09 | deg/d |
Q | 3.441353302031848 | 3.4699e-08 | au |
|
| | Orbit Determination Parameters
Additional Information
|